DELTA 1 DEB, 13530

Orbit data source: Space-Track

DELTA 1 DEB, 13530 is space debris in SSO originally from a launch on Thu, 29 Jul 1976 UTC launched from the Air Force Western Test Range (AFWTR). Debris objects in space refer to the collection of defunct objects orbiting the Earth. Examples of debris include non-operational satellites, rocket bodies, and fragments generated from explosions, collisions, or faulty payload assembly.

Loading next visibility...
Identifier
13530, 1976-077EC
Orbit
SSO
Country
Flag of USUS
Related business
Manufacturer
Unknown
Mission
Spacecraft
Bus & Motor
Unknown
Mass
Unknown
Launch date (UTC)
1976-07-29 (50 years ago)
Launch vehicle
Unknown
Launch site
Air Force Western Test Range (AFWTR)
Object type
Payload
Rocket body
Debris
Shape & HBR
Unknown shape, 0.1 m
Radar Cross Section
Medium (>0.1 m² and <1 m²)

Expand to show TLE details & history
Last TLE update: 2 days ago

TLE from 2 days ago
0 DELTA 1 DEB
1 13530U 76077EC  26254.27448757  .00000564  00000-0  46038-2 0  9990
2 13530 102.3386   2.4785 0126119 204.4271 181.4727 12.37340739 73091
Epoch: 2026-09-11T06:35Z
TLE epoch observation values (Epoch: 2026-09-11T06:35:15.726Z)
Latitude
25.25249°
Longitude
-92.53074°
Altitude
1,620.185 km
Speed
7.018 km/s
True Right ascension
23h 46m 20s
True Declination
25° 08' 04"
Sunlit
Object was in full shadow at epoch
Visualization orbit readout
Latitude
Unknown
Longitude
Unknown
Altitude
Unknown
Speed
Unknown
Apparent Right ascension
Unknown
Apparent Declination
Unknown
Sunlit
N/A
Visualization observer readout
Local Sidereal Time
02:27:42
Azimuth
Unknown
Elevation
Unknown
Doppler factor
Unknown
Orbital elements
Apogee altitude
1,615.048 km
Perigee altitude
1,415.941 km
Semi-major axis
7,893.631 km
Eccentricity
0.01261
Inclination
102.3386°
RAAN
2.4785°
Arg. of periapsis
204.4271°
True anomaly
181.43613°
Mean anomaly
181.4727°
Eccentric anomaly
181.45436°
Mean motion
3.09477 °/min
Orbital period
116.33 mins
BSTAR
0.0046038
Loading maneuver chart data...
Computing Atmospheric mass density...
Loading historical data...
Loading historical data...
Loading historical data...
Loading historical data...
Loading historical data...
Loading historical data...
Loading historical data...

Documentation

Showing up to 5 results
|